PFYU

Details ICAO PFYU (FYU)
Name FORT YUKON
Region USA (Alaska)
Timezone America/Anchorage (UTC-8.0)
Plans Departing 3
Arriving 4
Stats Elevation 433 ft / 132 m (AMSL)
Location 66.571487° -145.250425°
Runways 1
Magnetic Variation 18.441° E
Sunrise 2018-05-26 11:03:35 UTC / 2018-05-26 03:03:35 Local
Sunset 2018-05-27 08:15:28 UTC / 2018-05-27 00:15:28 Local
Advertisement - Login to hide

Runways

ID Width Length Bearing (true) Bearing (mag) Surface Threshold Offset Overrun Length
03 151 ft / 46 m 5,789 ft / 1,764 m 60.28° 41.84° Gravel 810 ft / 247 m 0 ft / 0 m
21 151 ft / 46 m 5,789 ft / 1,764 m 240.31° 221.87° Gravel 0 ft / 0 m 0 ft / 0 m

Map

Weather


0- 5 10 15 20 25 30 35+ Temperature / ° C

Clouds and Precipitation
Forecast for 2018-05-26 12:00 UTC. Updated 5 hours ago

Ground ~20,000 ft ~40,000 ft Winds

METAR

PFYU 261556Z 06008KT 10SM FEW080 BKN100 07/02 A2972

TAF

Not found

Frequencies

Recorded 125.80 MHz AWOS-3
Unicom 122.10 MHz Fairbanks FSS
Approach 135.00 MHz Anchorage ARTCC
Unicom 122.50 MHz CTAF
Tower 125.30 MHz EIELSON RANGE CON
Warning: Do not use this data for real-world aviation or navigation. No guarantee of current accuracy is given.